COSMOS 2112

Satellite information

Favourite Embed

Satellite Type and Status

PAYLOADIN ORBIT

Key statistics

Satellite COSMOS 2112 at a glance.

Uptime

12568

Days in orbit

Revolutions

≈ 14.3

Per day

Orbit

LEO

Low Earth Orbit

Inclination

74.0

Latest

Satellite identification and parameters

Extended collection of information and parameters for COSMOS 2112.

Object identification

Identified? True

Debris? False

Object name: COSMOS 2112

International designator: 1990-111A

Object number (NORAD): 21014

Object ID (CCSDS): 21014

Country: COMMONWEALTH OF INDEPENDENT STATES (CIS)

Current information (Y/N): Y

RCS size: LARGE

Orbital parameters

Period: 100.407 minutes

Inclination: 74.0467 deg

SMA: 7156.007 km

Apoapsis: 798.213 km

Periapsis: 757.531 km

RAAN: 326.3361 deg

Eccentricy: 0.0028425

Argument of periapsis: 256.1205 deg

Mean anomaly: 103.6784 deg

Mean motion: 14.3415684 rev/day

Mean motion (dot): 0.00000183 rev/day2

B* drag term: 0.00007438 1/REarth

Two-line elements (TLE)

Creation date: May 8, 2025, 3:01 a.m.

Reference frame: TEME

Reference center: EARTH

Epoch: May 7, 2025, 8:15 p.m. UTC

TLE line 0: 0 COSMOS 2112

TLE line 1: 1 21014U 90111A 25127.84397132 .00000183 00000-0 74380-4 0 9992

TLE line 2: 2 21014 74.0467 326.3361 0028425 256.1205 103.6784 14.34156840799161

Live tracking on map

Real-time ground track for satellite COSMOS 2112.

In-orbit conjunctions

A list of the most updated potential collisions computed for object COSMOS 2112.

Target Orbit TCA Probability of collision Miss distance Type
FENGYUN 1C DEB SSO 2025-02-18 15:47:10 0.0001280884 967.0 (m) DEBRIS
NOAA 16 DEB SSO 2024-11-15 17:16:24 0.0001054608 271.0 (m) DEBRIS
CZ-6A DEB LEO 2024-11-03 01:17:22 0.0001153057 723.0 (m) DEBRIS
CZ-6A DEB SSO 2024-06-28 23:13:24 0.00014841 258.0 (m) DEBRIS

Associated space launch

Military communications satellite

COSMOS 2112 was lifted into orbit during the mission ‘Kosmos-3M | Strela-2M 48’, on board a Kosmos-3M space rocket.

The launch took place on Dec. 10, 1990, 7:54 a.m. from 133/3 (133L).

For more information about the launch, click the button.

Launch to space Kosmos-3M | Strela-2M 48
Kosmos-3M | Strela-2M 48

Agency: N/A

Status: Launch Successful

Launch date: Dec. 10, 1990, 7:54 a.m. UTC

Rocket: Kosmos-3M

Launch pad: 133/3 (133L)

Location: Plesetsk Cosmodrome, Russian Federation

...

Latest news about this satellite

There are no fresh news available about this satellite. Check back as we update our databases every day.


Newsletter sign-up

Weekly statistics, charts and insights to help you stay on top of the space industry.